| time (UTC) | temp F | wind direction | speed MPH | gust MPH | rain 1hr in | rain 24hr in | rain mn in | humidity % | barometer mb |
| 20260906173041 | 79 | 113 | 4.0 | 11.0 | 0.00 | 0.50 | 0.01 | 54 | 1013.9 |
| 20260906171540 | 79 | 59 | 0.0 | 5.0 | 0.00 | 0.50 | 0.01 | 54 | 1013.9 |
| 20260906170038 | 78 | 56 | 0.0 | 8.0 | 0.00 | 0.50 | 0.01 | 56 | 1014.0 |
| 20260906164536 | 78 | 36 | 2.0 | 9.0 | 0.00 | 0.50 | 0.01 | 57 | 1014.2 |
| 20260906163034 | 77 | 337 | 3.0 | 11.0 | 0.00 | 0.50 | 0.01 | 58 | 1014.4 |
| 20260906161532 | 77 | 278 | 0.0 | 7.0 | 0.00 | 0.50 | 0.01 | 59 | 1014.5 |
| 20260906160033 | 76 | 66 | 2.0 | 11.0 | 0.00 | 0.50 | 0.01 | 62 | 1014.6 |
| 20260906154532 | 76 | 69 | 3.0 | 8.0 | 0.00 | 0.50 | 0.01 | 63 | 1014.5 |
| 20260906153034 | 75 | 293 | 4.0 | 10.0 | 0.00 | 0.50 | 0.01 | 64 | 1014.7 |
| 20260906151524 | 74 | 131 | 0.0 | 5.0 | 0.00 | 0.50 | 0.01 | 67 | 1014.5 |
| 20260906150024 | 74 | 268 | 1.0 | 6.0 | 0.00 | 0.50 | 0.01 | 67 | 1014.4 |
| 20260906144518 | 73 | 4 | 0.0 | 7.0 | 0.00 | 0.50 | 0.01 | 72 | 1014.2 |
| 20260906143018 | 73 | 341 | 1.0 | 7.0 | 0.00 | 0.50 | 0.01 | 73 | 1014.2 |
| 20260906141512 | 72 | 36 | 1.0 | 6.0 | 0.00 | 0.50 | 0.01 | 74 | 1014.1 |
| 20260906140017 | 72 | 279 | 0.0 | 6.0 | 0.00 | 0.50 | 0.01 | 76 | 1014.0 |
| 20260906134511 | 71 | 300 | 1.0 | 8.0 | 0.00 | 0.50 | 0.01 | 76 | 1013.9 |
| 20260906133020 | 70 | 359 | 0.0 | 7.0 | 0.00 | 0.50 | 0.01 | 77 | 1013.9 |
| 20260906131509 | 70 | 38 | 2.0 | 7.0 | 0.00 | 0.50 | 0.01 | 77 | 1013.9 |
| 20260906130007 | 69 | 297 | 0.0 | 10.0 | 0.00 | 0.50 | 0.01 | 81 | 1013.9 |
| 20260906124504 | 69 | 28 | 2.0 | 6.0 | 0.00 | 0.50 | 0.01 | 81 | 1013.7 |
| 20260906123004 | 68 | 355 | 0.0 | 5.0 | 0.00 | 0.50 | 0.01 | 84 | 1013.4 |
| 20260906121602 | 68 | 304 | 0.0 | 5.0 | 0.00 | 0.50 | 0.01 | 85 | 1013.4 |
| 20260906120100 | 67 | 21 | 0.0 | 4.0 | 0.00 | 0.50 | 0.01 | 87 | 1013.1 |
| 20260906114654 | 67 | 94 | 0.0 | 8.0 | 0.00 | 0.55 | 0.01 | 87 | 1012.8 |
| 20260906113051 | 67 | 278 | 0.0 | 1.0 | 0.00 | 0.55 | 0.01 | 89 | 1012.6 |
| 20260906111550 | 67 | 278 | 0.0 | 6.0 | 0.00 | 0.55 | 0.01 | 89 | 1012.5 |
| 20260906110053 | 68 | 37 | 0.0 | 3.0 | 0.00 | 0.55 | 0.01 | 90 | 1012.3 |
| 20260906104544 | 68 | 320 | 0.0 | 4.0 | 0.00 | 0.56 | 0.01 | 92 | 1012.2 |
| 20260906103058 | 68 | 332 | 1.0 | 10.0 | 0.00 | 0.56 | 0.01 | 92 | 1012.0 |
| 20260906101539 | 69 | 40 | 0.0 | 8.0 | 0.00 | 0.56 | 0.01 | 94 | 1012.0 |
| 20260906100037 | 69 | 2 | 0.0 | 6.0 | 0.00 | 0.56 | 0.01 | 94 | 1011.8 |
| 20260906094533 | 70 | 66 | 1.0 | 6.0 | 0.00 | 0.56 | 0.01 | 95 | 1011.7 |
| 20260906093037 | 70 | 45 | 0.0 | 8.0 | 0.00 | 0.56 | 0.01 | 95 | 1011.6 |
| 20260906091529 | 71 | 283 | 0.0 | 6.0 | 0.00 | 0.56 | 0.01 | 96 | 1011.3 |
| 20260906090041 | 71 | 31 | 0.0 | 6.0 | 0.00 | 0.56 | 0.01 | 96 | 1011.2 |
| 20260906084525 | 71 | 34 | 0.0 | 3.0 | 0.00 | 0.56 | 0.01 | 96 | 1011.1 |
| 20260906083029 | 71 | 11 | 0.0 | 5.0 | 0.00 | 0.56 | 0.01 | 96 | 1011.1 |
| 20260906081523 | 71 | 264 | 0.0 | 0.0 | 0.00 | 0.56 | 0.01 | 96 | 1011.2 |
| 20260906080022 | 71 | 9 | 0.0 | 1.0 | 0.01 | 0.56 | 0.01 | 96 | 1011.0 |
| 20260906074521 | 71 | 34 | 0.0 | 5.0 | 0.01 | 0.56 | 0.01 | 96 | 1010.9 |
| 20260906073019 | 72 | 1 | 0.0 | 2.0 | 0.01 | 0.56 | 0.01 | 97 | 1010.9 |
| 20260906071518 | 72 | 347 | 0.0 | 5.0 | 0.01 | 0.56 | 0.01 | 97 | 1011.1 |
| 20260906070017 | 72 | 312 | 0.0 | 4.0 | 0.00 | 0.56 | 0.00 | 97 | 1011.1 |
| 20260906064515 | 72 | 335 | 1.0 | 5.0 | 0.00 | 0.56 | 0.00 | 97 | 1011.1 |
| 20260906063021 | 72 | 77 | 0.0 | 2.0 | 0.00 | 0.56 | 0.00 | 97 | 1011.2 |
| 20260906061513 | 72 | 23 | 0.0 | 5.0 | 0.00 | 0.56 | 0.00 | 97 | 1011.2 |
| 20260906060014 | 72 | 333 | 0.0 | 0.0 | 0.00 | 0.56 | 0.00 | 97 | 1011.3 |
| 20260906054509 | 72 | 231 | 0.0 | 3.0 | 0.00 | 0.56 | 0.00 | 98 | 1011.3 |
| 20260906053009 | 72 | 70 | 0.0 | 4.0 | 0.00 | 0.56 | 0.00 | 98 | 1011.2 |
| 20260906051508 | 72 | 47 | 0.0 | 0.0 | 0.00 | 0.56 | 0.00 | 98 | 1011.3 |
| 20260906050006 | 72 | 329 | 0.0 | 0.0 | 0.00 | 0.56 | 0.00 | 98 | 1011.1 |
| 20260906044504 | 72 | 349 | 0.0 | 0.0 | 0.00 | 0.56 | 0.00 | 98 | 1010.7 |
| 20260906043003 | 72 | 335 | 0.0 | 0.0 | 0.00 | 0.56 | 0.00 | 98 | 1010.5 |
| 20260906041502 | 72 | 108 | 0.0 | 0.0 | 0.00 | 0.56 | 0.00 | 98 | 1010.5 |
| 20260906040100 | 72 | 306 | 0.0 | 0.0 | 0.00 | 0.56 | 0.00 | 98 | 1010.5 |
| 20260906034627 | 72 | 356 | 0.0 | 0.0 | 0.00 | 0.56 | 0.56 | 97 | 1010.4 |
| 20260906033059 | 72 | 356 | 0.0 | 0.0 | 0.00 | 0.56 | 0.56 | 97 | 1010.3 |
| 20260906031600 | 72 | 28 | 0.0 | 0.0 | 0.00 | 0.56 | 0.56 | 98 | 1010.4 |
| 20260906030058 | 72 | 29 | 0.0 | 0.0 | 0.00 | 0.56 | 0.56 | 98 | 1010.4 |
| 20260906024557 | 73 | 37 | 0.0 | 0.0 | 0.00 | 0.56 | 0.56 | 97 | 1010.2 |
| 20260906023057 | 73 | 64 | 0.0 | 0.0 | 0.00 | 0.56 | 0.56 | 97 | 1010.4 |
| 20260906021556 | 73 | 39 | 0.0 | 0.0 | 0.00 | 0.56 | 0.56 | 97 | 1010.4 |
| 20260906020100 | 74 | 37 | 0.0 | 0.0 | 0.02 | 0.56 | 0.56 | 97 | 1010.5 |
| 20260906014555 | 74 | 325 | 0.0 | 0.0 | 0.03 | 0.56 | 0.56 | 97 | 1010.5 |
| 20260906013104 | 75 | 231 | 0.0 | 0.0 | 0.03 | 0.56 | 0.56 | 97 | 1010.4 |
| 20260906011554 | 75 | 231 | 0.0 | 0.0 | 0.03 | 0.56 | 0.56 | 97 | 1010.4 |
| 20260906010055 | 75 | 231 | 0.0 | 0.0 | 0.44 | 0.54 | 0.54 | 97 | 1010.0 |
| 20260906004554 | 74 | 242 | 0.0 | 0.0 | 0.46 | 0.53 | 0.53 | 96 | 1010.0 |
| 20260906003051 | 74 | 259 | 0.0 | 0.0 | 0.46 | 0.53 | 0.53 | 94 | 1009.7 |
| 20260906001550 | 74 | 219 | 0.0 | 10.0 | 0.46 | 0.53 | 0.53 | 92 | 1009.3 |
| 20260906000100 | 78 | 15 | 0.0 | 9.0 | 0.02 | 0.09 | 0.09 | 83 | 1009.9 |
| 20260905234558 | 82 | 90 | 0.0 | 6.0 | 0.00 | 0.07 | 0.07 | 75 | 1009.2 |
| 20260905233048 | 82 | 154 | 1.0 | 4.0 | 0.00 | 0.07 | 0.07 | 75 | 1009.4 |
| 20260905231547 | 82 | 79 | 2.0 | 7.0 | 0.00 | 0.07 | 0.07 | 75 | 1009.6 |
| 20260905230047 | 84 | 101 | 1.0 | 10.0 | 0.00 | 0.07 | 0.07 | 74 | 1009.3 |
| 20260905224546 | 85 | 143 | 0.0 | 8.0 | 0.00 | 0.09 | 0.07 | 74 | 1009.2 |
| 20260905223050 | 88 | 82 | 1.0 | 5.0 | 0.00 | 0.09 | 0.07 | 63 | 1009.2 |
| 20260905221548 | 89 | 3 | 0.0 | 0.0 | 0.00 | 0.09 | 0.07 | 63 | 1009.1 |
| 20260905220044 | 89 | 354 | 0.0 | 0.0 | 0.00 | 0.09 | 0.07 | 63 | 1008.9 |
| 20260905214543 | 89 | 53 | 0.0 | 2.0 | 0.00 | 0.09 | 0.07 | 63 | 1008.7 |
| 20260905213041 | 90 | 88 | 0.0 | 2.0 | 0.00 | 0.09 | 0.07 | 61 | 1008.8 |
| 20260905211541 | 89 | 313 | 0.0 | 0.0 | 0.00 | 0.09 | 0.07 | 62 | 1008.9 |
| 20260905210053 | 88 | 23 | 0.0 | 7.0 | 0.00 | 0.09 | 0.07 | 64 | 1009.0 |
| 20260905204538 | 92 | 287 | 0.0 | 3.0 | 0.00 | 0.09 | 0.07 | 54 | 1009.1 |
| 20260905203051 | 94 | 239 | 0.0 | 4.0 | 0.00 | 0.09 | 0.07 | 52 | 1009.1 |
| 20260905201536 | 94 | 290 | 0.0 | 5.0 | 0.00 | 0.09 | 0.07 | 52 | 1009.3 |
| 20260905200033 | 95 | 241 | 0.0 | 0.0 | 0.00 | 0.09 | 0.07 | 52 | 1009.4 |
| 20260905194531 | 94 | 22 | 0.0 | 5.0 | 0.00 | 0.09 | 0.07 | 53 | 1009.6 |
| 20260905193034 | 94 | 278 | 1.0 | 7.0 | 0.00 | 0.09 | 0.07 | 51 | 1009.8 |
| 20260905191535 | 95 | 273 | 0.0 | 4.0 | 0.00 | 0.09 | 0.07 | 50 | 1010.0 |
| 20260905190024 | 94 | 281 | 0.0 | 5.0 | 0.00 | 0.09 | 0.07 | 50 | 1010.3 |
| 20260905184523 | 93 | 214 | 0.0 | 8.0 | 0.00 | 0.09 | 0.07 | 49 | 1010.5 |
| 20260905183022 | 94 | 271 | 0.0 | 3.0 | 0.00 | 0.09 | 0.07 | 48 | 1010.7 |
| 20260905181522 | 93 | 222 | 0.0 | 8.0 | 0.00 | 0.09 | 0.07 | 49 | 1010.7 |
| 20260905180019 | 93 | 267 | 0.0 | 5.0 | 0.00 | 0.09 | 0.07 | 48 | 1010.6 |
| 20260905174521 | 93 | 227 | 0.0 | 6.0 | 0.00 | 0.09 | 0.07 | 47 | 1010.6 |